Location: Chicago
(41.8500°N, 87.6500°W)
Time: 06:59:33
(UTC-06:00)

N. Korean satellite - Visible Passes

Search period start: 23 November 2017 00:00
Search period end: 03 December 2017 00:00
Orbit: 460 x 514 km, 97.2° (Epoch: 22 November)

Date Brightness Start Highest point End Pass type
(mag) Time Alt. Az. Time Alt. Az. Time Alt. Az.
23 Nov 6.9 17:24:27 10° SE 17:27:44 39° ENE 17:31:07 10° N visible
23 Nov 10.0 19:00:03 10° WSW 19:01:29 12° W 19:02:55 10° WNW visible
24 Nov 7.8 17:01:41 10° ESE 17:04:24 21° ENE 17:07:09 10° NNE visible
24 Nov 9.0 18:34:56 10° SSW 18:37:48 23° W 18:40:43 10° NW visible
25 Nov 9.2 06:01:17 10° NE 06:04:32 27° E 06:07:45 10° SSE visible
25 Nov 7.6 18:10:47 10° S 18:14:11 46° W 18:17:41 10° NNW visible
26 Nov 10.0 05:38:44 10° ENE 05:40:52 15° E 05:43:01 10° SE visible
26 Nov 6.4 17:47:08 10° SSE 17:50:40 83° ENE 17:54:18 10° N visible
27 Nov 7.0 17:23:53 10° SE 17:27:13 39° ENE 17:30:38 10° N visible
27 Nov 10.0 18:59:26 10° WSW 19:00:57 12° W 19:02:30 10° WNW visible
28 Nov 7.8 17:01:07 10° ESE 17:03:51 21° ENE 17:06:39 10° NNE visible
28 Nov 9.0 18:34:20 10° SSW 18:37:15 23° W 18:40:14 10° NW visible
29 Nov 9.1 06:00:46 10° NE 06:04:00 27° E 06:07:14 10° SSE visible
29 Nov 7.6 18:10:11 10° S 18:13:38 46° W 18:17:10 10° NNW visible
30 Nov 10.0 05:38:13 10° ENE 05:40:20 14° E 05:42:27 10° SE visible
30 Nov 6.4 17:46:32 10° SSE 17:50:05 82° ENE 17:53:46 10° N visible
01 Dec 7.0 17:23:16 10° SE 17:26:38 39° ENE 17:30:05 10° N visible
01 Dec 9.9 18:58:44 10° WSW 19:00:21 13° W 19:02:00 10° WNW visible
02 Dec 7.7 06:23:19 10° NNE 06:27:02 52° E 06:30:41 10° S visible
02 Dec 7.8 17:00:29 10° ESE 17:03:15 21° ENE 17:06:05 10° NNE visible
02 Dec 9.0 18:33:41 10° SSW 18:36:38 24° W 18:39:40 10° NW visible
